Погода в Октябрьском

Россия / Тульская область     53°57′43″N   37°59′10″E
темп.,
°C
ветер,
м/с
пор.,
м/с
влажн.,
%
обл.,
%
осадки,
мм/ч
давл.,
гПа
погр.,
м
15 апреля, чт
чт1500:00+12юв3352100 0.0 101624
03:00+11в356090 0.0 101668
06:00+10вюв4867100 0.0 1015139
09:00+13юв3560100 0.0 1015224
12:00+17в4645100 0.0 1014765
15:00+18вюв5738100 0.0 10131455
18:00+16ююв5953100 0.0 1013373
21:00+12ссз1180100 0.0 101416
16 апреля, пт
пт1600:00+11ю1487100 0.6 1015171
03:00+10в358695 0.8 1016129
06:00+9в378924 0.0 1017159
09:00+12вюв4674100 0.0 1017465
12:00+15в5761100 0.0 10181127
15:00+14в586787 1.9 1017947
18:00+12ю4786100 5.8 1018370
21:00+10вюв4888100 12.9 1019309
17 апреля, сб
сб1700:00+10всв479060 5.0 1019196
03:00+9всв6119598 5.2 1020297
06:00+8св61195100 0.5 1020372
09:00+10всв7118663 0.6 1020463
12:00+13всв81168100 0.1 10191116
15:00+16всв91361100 0.1 10181543
18:00+13вюв91369100 1.1 10181072
21:00+10в4987100 2.0 1019459
18 апреля, вс
вс1800:00+10всв6118494 2.1 1019578
03:00+8всв61277100 2.1 1019628
06:00+7всв71275100 0.0 1020612
09:00+6всв71175100 0.0 1020694
12:00+7всв71077100 0.3 1021626
15:00+6всв71089100 0.8 1022627
18:00+7в51088100 0.2 1023559
21:00+5всв51092100 0.2 1024348
19 апреля, пн
пн1900:00+5всв389395 0.0 1024192
03:00+4ссв4109076 0.0 1024222
06:00+5св51085100 0.0 1024392
09:00+7всв61179100 0.0 1025709
12:00+10всв7963100 0.1 10241414
15:00+9всв6968100 0.1 10241208
18:00+8всв5971100 0.0 1025599
21:00+7всв51069100 0.1 1025517